Regional Weather Roundup
Issued by NWS

Home | Current Version | Previous Version | Graphics & Text | Print | Product List | Glossary On
Versions: 1 2 3 4 5 6 7 8 9 10 11 12 13 14 15 16 17 18 19 20 21 22 23 24 25 26 27 28 29 30 31 32 33 34 35 36 37 38 39 40 41 42 43 44 45 46 47 48 49 50
000
ASUS43 KLOT 010806
RWRIL

ILLINOIS REGIONAL WEATHER ROUNDUP
NATIONAL WEATHER SERVICE CHICAGO/ROMEOVILLE IL
300 AM CDT MON SEP 01 2014

NOTE: "FAIR" INDICATES FEW OR NO CLOUDS BELOW 12,000 FEET WITH NO
SIGNIFICANT WEATHER AND/OR OBSTRUCTIONS TO VISIBILITY.

* THESE STATIONS ARE NOT UNDER NWS QUALITY CONTROL. THEY ALSO MAY NOT
  REPORT WEATHER SUCH AS PRECIPITATION OR FOG.

ILZ001-002-007-009-015-016-024-010900-
NORTHWEST ILLINOIS

CITY           SKY/WX    TMP DP  RH WIND       PRES   REMARKS
MOLINE         TSTM      67  64  90 NW10G21   29.82R
STERLING*      CLOUDY    72  70  94 S6        29.79F
SAVANNA*       RAIN      72  62  70 W18G26    29.83R
$$

ILZ003-004-008-010-011-017-018-010900-
NORTH CENTRAL ILLINOIS

CITY           SKY/WX    TMP DP  RH WIND       PRES   REMARKS
ROCKFORD       CLOUDY    71  68  90 S8        29.82F
FREEPORT*      CLOUDY    73  71  93 NW9       29.82S
ROCHELLE*      MOCLDY    71  69  94 SE7       29.82F
DE KALB*       MOCLDY    68  67  97 S7        29.85R FOG
PERU*          MOCLDY    73  71  93 S10       29.82F
$$

ILZ005-006-012>014-019>023-010900-
NORTHEAST ILLINOIS

CITY           SKY/WX    TMP DP  RH WIND       PRES   REMARKS
CHICAGO-OHARE  PTCLDY    74  68  81 S10       29.83F
CHICAGO-MIDWAY MOCLDY    75  71  87 S9        29.84S
AURORA         MOCLDY    72  68  87 S7        29.84S FOG
LANSING*         N/A    N/A N/A N/A MISG        N/A
JOLIET*        PTCLDY    73  69  88 S8        29.85S
WAUKEGAN       CLEAR     72  69  90 SW10      29.82S
DUPAGE AIRPORT PTCLDY    73  70  90 S10       29.84S
KANKAKEE*      CLEAR     71  70  96 S9        29.87S
WHEELING       PTCLDY    76  70  82 S9        29.84F
MORRIS*        MOCLDY    73  73 100 S7        29.84S
ROMEOVILLE*    PTCLDY    70  70  98 S6        29.84F
NORTHERLY ISL    N/A     74  69  85 S12         N/A
$$

LMZ740>746-010900-
SOUTHERN LAKE MICHIGAN

STATION/POSITION SKY/WX   TEMP    WIND        PRES    VSBY  WAVE
                          AIR SEA DIR/SP/G                  HT/PER
                          (F)     (DEG/KT/KT) (MB)    (MI)  (FT/S)
SOUTHERN BUOY              72 70  180/ 14/ 17 1009.8F         2/ 3
WAUKEGAN HARBOR            71     180/  9/ 11   N/A
HARRISON CRIB              74     200/ 16/ 19   N/A
BURNHAM HARBOR             74     190/ 10/ 13   N/A
CALUMET HARBOR             74     190/  7/ 10 1009.6S
MICHIGAN CITY              72     150/ 12/ 16   N/A
MICHIGAN CITY 6N           73 73  180/ 10/ 14   N/A           1/ 2
ST. JOSEPH                 72 72  150/ 12/ 14   N/A           1/ 2
$$

ILZ025>027-034>036-040-047-049-050-058-095>099-010900-
WEST-CENTRAL ILLINOIS

CITY           SKY/WX    TMP DP  RH WIND       PRES   REMARKS
QUINCY         CLOUDY    76  69  79 SW10      29.82S
GALESBURG*     CLOUDY    71  66  85 W17G25    29.85R
MACOMB*        CLOUDY    74  71  88 S12G17    29.83S
JACKSONVILLE*  CLOUDY    76  72  88 S9        29.84F
PITTSFIELD*    MOCLDY    76  70  83 S8        29.85S
$$

ILZ028>032-037-038-041>044-048-051>054-059>061-010900-
CENTRAL ILLINOIS

CITY           SKY/WX    TMP DP  RH WIND       PRES   REMARKS
PONTIAC        PTCLDY    73  72  94 S8        29.85S
DECATUR        PTCLDY    74  71  91 S10       29.88F
PEORIA         MOCLDY    74  70  87 S9        29.82F
LACON*         MOCLDY    72  69  92 S7        29.81F
LINCOLN*       PTCLDY    73  71  92 S7        29.83F
SPRINGFIELD    PTCLDY    75  71  87 S10       29.85F
TAYLORVILLE    MOCLDY    72  70  94 S9        29.88S
$$

ILZ033-039-045-046-055>057-062-063-010900-
EAST-CENTRAL ILLINOIS

CITY           SKY/WX    TMP DP  RH WIND       PRES   REMARKS
CHAMPAIGN      PTCLDY    72  70  93 S10       29.89F
DANVILLE*      MOCLDY    71  70  96 S8        29.88F
RANTOUL*       CLEAR     72  69  90 S7        29.89F
MATTOON        PTCLDY    72  70  93 S10       29.91S
PARIS*         PTCLDY    72  71  98 S7        29.92F
$$

ILZ079-100>102-010900-
SOUTHWEST ILLINOIS

CITY           SKY/WX    TMP DP  RH WIND       PRES   REMARKS
BELLEVILLE     PTCLDY    74  74  99 VRB2      29.90R
CAHOKIA*       PTCLDY    77  72  84 S6        29.89S
SPARTA*        CLEAR     74  72  94 S7        29.94R
$$

ILZ064>066-069>071-074>076-080>082-084>086-088>090-092>094-010900-
SOUTH-CENTRAL ILLINOIS

CITY           SKY/WX    TMP DP  RH WIND       PRES   REMARKS
CARBONDALE     CLEAR     75  72  90 S12       29.94S
CAIRO*         MOCLDY    76  73  87 S7        29.97S
EFFINGHAM*     PTCLDY    72  69  89 S7        29.92S
MARION         MOCLDY    75  73  94 S10       29.96R
MT. VERNON     PTCLDY    73  70  88 S8        29.94S
CENTRALIA*     PTCLDY    73  70  88 S8        29.93S
SALEM*         MOCLDY    76  73  92 S9        29.93S
METROPOLIS*    PTCLDY    75  75 100 S6        29.97S
$$

ILZ067-068-072-073-078-083-087-091-010900-
SOUTHEAST ILLINOIS

CITY           SKY/WX    TMP DP  RH WIND       PRES   REMARKS
LAWRENCEVILLE  CLEAR     73  72  96 S8        29.95S
FLORA*         CLEAR     72  71  96 S6        29.94S
FAIRFIELD*     PTCLDY    73  72  94 S6        29.94S
HARRISBURG*    CLEAR     74  74  98 S6        29.96S
ROBINSON*      CLEAR     74  73  95 S7        29.95S
CARMI*         CLEAR     73  73  98 CALM      29.95S
$$

ABBREVIATIONS USED IN REMARKS
   TC - TEMPERATURE IN CELSIUS
  WCI - WIND CHILL INDEX
   HX - HEAT INDEX
  VSB - VISIBILITY
$$




USA.gov is the U.S. government's official web portal to all federal, state and local government web resources and services.